CAPE
3670 3620 3660 3544 3327 2886 2845 3224 3723 3774 3733 2950 2865 3102 3008 3166 3113 2737 2770 3056 3665 3873 3518 3410 3810 3876 3810 3734 3665 3739 3291 3223 2770 2613 2302 1772 1548 1199 635 622 640 506
3615 3715 3739 3650 3557 3450 3164 3029 3372 3713 3747 3515 2889 2817 3249 3152 3240 3162 3104 3212 3586 4121 3986 3552 3890 4214 4067 3540 3681 3784 3806 3460 3238 2566 2460 1901 1523 1369 804 770 672 661
3588 3581 3832 3753 3392 3406 3146 3016 3224 3338 3413 3628 3211 2832 2941 3320 3294 3585 3456 3427 3614 3956 4202 3712 3697 4036 3918 3394 3587 3650 3784 3787 3534 2678 2677 2297 1602 1429 1282 624 612 595
3902 3914 3722 3672 3517 3459 3479 3248 3152 3261 3372 3479 3494 3018 2643 2847 3406 3651 3925 3824 3858 4100 4104 3986 3616 3610 3824 3350 3480 3402 3524 3921 3726 3235 2652 2385 2001 1518 1438 988 660 570
3927 3962 3905 3823 3668 3434 3729 3578 3108 3139 3310 3187 3306 3447 3260 3132 3265 3650 4086 4159 4134 4258 4136 4054 3779 3725 3850 3680 3533 3456 3318 3546 3538 3458 2939 2504 2330 1829 1586 1336 957 650
3938 4030 4040 3978 3538 3709 3657 3722 3480 3089 3335 2984 3068 3268 3391 3390 3347 3604 3914 3870 4108 4058 3513 3620 3883 3682 3807 3954 3791 3463 2955 3049 3218 3364 3135 2765 2393 1932 1634 1616 1290 942
4076 4167 4148 3653 3633 3753 3785 4018 3930 3467 3272 3232 3173 3192 3226 3597 3690 3607 3746 3903 3817 4111 3528 3554 3998 3911 3752 3913 3886 3692 3353 3367 3206 3136 3050 2725 2568 2170 1728 1800 1629 1266
3885 4002 4105 3824 3805 3550 4019 4030 4054 3893 3586 3592 3404 3519 3563 3703 3885 3984 3841 3790 3982 4116 4125 3656 4083 4116 3708 3790 3909 3861 3560 3236 3234 3218 2905 2772 2711 2425 2136 1901 1808 1648
3902 4084 4357 4051 3816 3560 3816 3790 4005 4140 3920 3674 3496 3477 3867 3718 3888 4051 4270 4076 4090 4097 4217 3972 4053 4266 4039 3958 4021 4038 3652 3262 3167 3292 3104 2968 2786 2621 2460 2291 2052 1938
4032 4060 3870 3754 3727 3376 3467 3667 3585 3832 4001 3824 3641 3210 3466 4026 3925 4102 4386 4508 4254 4140 4150 4145 4017 4152 4360 4067 4130 4089 3904 3557 3286 3418 3264 3181 3077 2832 2642 2527 2338 2238
4133 4037 3846 3743 3426 3385 3474 3467 3306 3214 3535 3783 3642 3226 2847 3537 4118 4123 4446 4741 4515 4220 4209 4311 4307 4359 4418 4049 4134 4088 3970 3658 3422 3550 3550 3521 3364 3325 2922 2794 2694 2523
4243 4164 3781 3908 3897 3495 3399 3169 2843 2652 2960 3622 3743 3433 3079 2813 3848 4169 4337 4746 4826 4620 4370 4500 4626 4473 4580 4441 4100 4046 4014 3788 3645 3667 3614 3768 3730 3668 3352 3015 3020 2845
4322 4321 3886 3800 3964 3526 3089 2922 2586 2394 2371 2953 3629 3617 3469 2920 3092 4254 4352 4599 4990 4807 4618 4690 4799 4710 4829 4688 4346 4083 4047 4152 3638 3527 3627 3773 3935 3809 3404 3147 3030 3013
4654 4468 4125 3938 4041 4308 3726 3069 2864 2570 2714 2650 3349 3838 3599 3462 2990 3751 4378 4404 4875 4889 4828 4884 5010 4898 4818 4886 4631 4189 4162 4234 3831 3682 3898 4105 4027 3728 3328 3119 3015 2997
4940 4750 4609 4236 3902 4430 4290 3750 3306 3397 3360 3106 3455 3804 3828 3602 3410 3230 4231 4500 4710 4965 4943 4906 5004 5070 4904 4936 4938 4474 4195 4130 4049 3686 3696 3806 3852 3720 3376 3114 3043 2944
5312 5047 4867 4882 4529 4423 4794 4555 4005 3735 3476 3335 3426 3544 4023 4141 4017 3706 3640 4354 4576 4918 5126 4916 4986 5114 4719 4409 4511 4754 4342 3937 4021 3958 3759 3692 3798 3782 3419 3200 2963 2888
5410 5288 5060 5033 5051 4782 4844 4809 4610 4179 4326 4499 4221 3987 4323 4700 4286 3879 3637 3841 4458 4648 4949 4914 4952 5156 4621 4277 4176 4195 4377 4370 3933 4094 4076 3888 3753 3926 3550 3234 3129 2972
5422 5497 5385 5162 5076 4920 4929 5033 4914 4554 4456 4482 4223 4093 4629 4208 4310 4279 4360 3864 4039 4462 4716 4892 4880 4695 4573 4242 3958 3944 3977 4388 4056 3970 3946 3742 3688 3638 3734 3274 3044 3094
5475 5538 5530 5354 5264 5078 5041 5081 5146 4884 4570 4557 4438 4457 4413 4663 4758 4481 4450 4264 3984 4414 4446 4624 4780 4523 4374 4167 3813 3702 3683 3719 4098 4024 3698 3566 3592 3698 3500 3490 3269 3189
5642 5637 5655 5542 5459 5230 5100 5093 5209 5171 4809 4583 4579 4724 4561 4652 4628 4642 4718 4680 4357 4284 4534 4472 4763 4358 4250 4049 3790 3534 3451 3356 3899 4014 3915 3678 3647 3818 3525 3565 3651 3413
5688 5728 5791 5679 5577 5391 5189 5186 5273 5328 5055 4721 4513 4579 4702 4775 4662 4756 4808 4726 4484 4072 4037 4239 4423 4120 4166 4024 3756 3482 3271 3108 3705 3782 4127 4144 4128 4091 3901 3563 3735 3705
5632 5716 5718 5698 5565 5455 5320 5178 5267 5432 5190 4964 4603 4400 4567 4645 4848 4652 4662 4600 4624 4438 4085 4064 4019 3687 3897 3988 3776 3408 3184 3014 3481 3748 3931 4126 4184 4154 4117 4028 3838 3910
5345 5434 5494 5570 5650 5488 5323 5256 5328 5363 5208 5104 4834 4446 4374 4480 4700 4707 4772 4669 4664 4608 4461 4293 4254 4133 3617 3719 3775 3569 3159 2905 3384 3578 3654 3747 4042 4153 4158 4150 4071 4128
5187 5184 5281 5384 5522 5534 5354 5227 5144 5002 5200 5174 4844 4489 4206 4342 4510 4734 4755 4668 4560 4620 4266 4674 4351 4488 3656 3584 3533 3534 3304 3024 3438 3551 3566 3623 3698 3880 4011 4000 4090 3705
4971 4965 5066 5220 5404 5445 5291 5113 4885 4942 5038 5036 4906 4718 4481 4412 4228 4416 4582 4682 4619 4372 4332 4360 4589 4265 3948 3754 3541 3387 3271 3229 3487 3494 3543 3606 3560 3683 3842 3949 4047 3671
4761 5054 5152 5050 5080 5150 5298 5130 4964 4946 4987 4889 4789 4546 4556 4431 4192 4058 4298 4458 4588 4519 4534 4455 4546 4690 3724 3780 3726 3550 3330 3243 3678 3632 3568 3595 3656 3644 3765 3900 3828 3727
Wind_Speed
10 9 9 9 10 10 10 9 9 9 8 7 7 7 7 8 8 8 9 10 11 11 13 15 16 16 15 15 14 13 13 13 12 12 12 12 13 14 14 15 14 11
10 9 9 9 9 10 10 10 10 10 10 9 8 8 9 9 9 9 9 10 11 11 12 15 16 17 17 16 15 14 13 13 13 12 12 13 12 14 14 15 15 13
11 10 9 8 7 7 8 10 11 10 10 10 9 9 10 10 9 10 10 10 11 12 12 14 16 17 18 17 17 15 13 14 13 13 13 13 12 12 13 14 14 15
12 11 10 9 9 9 9 10 11 11 11 11 10 10 10 10 10 10 11 11 11 12 13 14 16 17 18 18 18 16 15 14 13 12 13 12 11 11 12 12 14 14
13 13 11 11 11 11 11 10 11 12 11 11 11 11 11 11 11 10 11 12 12 12 12 14 16 17 19 18 19 17 16 15 14 13 12 13 11 10 10 12 13 14
13 13 13 12 12 13 12 12 12 12 12 12 12 12 11 12 11 11 11 12 12 12 12 13 15 17 19 19 19 18 18 16 15 15 13 12 12 11 9 10 12 14
15 15 15 13 13 13 13 13 13 13 13 13 14 13 13 12 12 12 12 13 13 13 11 13 15 16 18 19 19 19 19 18 16 16 14 12 11 11 10 9 11 13
16 16 16 16 15 15 14 14 14 15 15 16 15 16 14 14 14 13 13 14 14 14 13 13 15 17 19 19 20 20 21 20 17 17 15 13 12 11 10 8 9 12
17 17 18 18 17 16 15 15 15 15 16 16 16 16 16 15 15 15 15 15 15 16 15 13 15 17 18 19 20 20 21 21 20 18 17 15 13 12 12 10 9 11
18 18 19 18 17 15 15 15 15 16 16 16 16 15 16 16 16 16 17 17 17 17 17 16 16 18 18 19 19 21 21 21 21 20 18 16 15 14 13 13 11 11
20 20 19 19 17 15 16 16 16 16 17 17 17 16 15 15 16 16 17 18 19 19 19 19 18 19 20 20 20 21 21 21 21 21 20 18 16 15 15 15 14 12
21 21 20 19 17 15 16 17 17 17 17 17 16 16 16 14 15 16 17 17 18 20 20 21 21 21 22 22 21 22 22 22 22 22 22 20 18 16 16 16 16 15
21 21 19 17 15 14 15 16 16 16 16 15 16 15 16 14 14 15 16 16 17 19 20 21 23 23 23 23 23 22 23 23 23 22 22 22 19 18 18 18 18 17
20 20 18 16 15 15 15 15 15 14 14 13 14 15 14 14 14 15 15 15 16 18 20 21 23 24 24 23 23 22 22 22 22 22 22 21 21 19 18 18 19 19
18 19 18 16 15 15 14 13 12 13 12 12 11 12 11 12 13 13 15 15 15 15 17 18 19 20 20 20 20 20 20 20 20 20 21 20 20 20 20 19 19 20
18 19 19 17 16 15 13 12 12 12 11 10 10 10 10 10 10 11 12 13 13 13 14 15 14 14 16 20 19 18 19 18 18 19 19 20 20 20 21 21 20 20
19 19 20 18 16 15 14 13 12 11 9 8 8 8 8 8 8 9 9 9 11 12 13 13 13 12 19 21 22 21 19 19 19 20 20 21 21 22 22 23 22 22
18 20 21 19 18 15 14 14 13 11 10 9 8 8 7 7 7 7 6 7 7 10 11 11 11 14 22 24 25 25 24 22 22 22 23 23 22 22 24 24 24 24
20 21 21 20 18 17 16 16 15 13 11 10 9 9 9 7 6 7 6 6 5 7 9 10 10 16 22 25 27 28 28 26 22 24 24 24 24 23 24 25 25 25
20 22 22 21 20 20 18 17 15 14 14 13 13 13 10 8 7 7 6 6 6 5 6 7 10 16 23 26 27 29 29 27 22 23 23 24 24 25 25 26 26 26
19 21 23 22 21 21 20 18 17 16 15 15 14 14 13 12 11 9 8 8 8 8 7 7 7 18 24 26 28 31 31 29 25 24 24 23 24 24 25 26 26 25
18 20 22 22 22 21 20 18 17 17 16 16 16 15 15 15 14 13 13 12 12 13 13 10 9 21 24 26 30 33 35 29 28 28 27 26 25 25 27 28 28 27
17 18 20 21 21 20 18 17 17 17 17 19 18 18 18 17 16 16 16 16 17 18 18 17 14 24 28 28 30 34 36 32 32 32 31 30 28 28 29 31 32 33
15 16 18 19 19 17 17 17 17 18 19 21 20 20 19 18 18 18 18 19 19 20 21 21 19 28 32 31 32 36 37 36 36 36 35 34 33 34 34 34 35 39
15 15 15 17 17 17 18 18 19 19 20 22 22 22 21 21 22 22 23 23 22 21 25 24 22 28 37 36 37 39 37 35 37 37 36 37 37 36 35 35 34 38
17 17 17 18 18 19 20 19 20 20 21 22 23 24 25 25 26 26 26 26 26 25 26 25 24 28 38 38 40 40 41 37 37 37 35 36 36 34 33 32 32 33
Wind_Direction
254 246 243 236 238 244 255 265 264 267 264 260 255 252 254 265 278 278 294 300 316 331 339 341 343 346 343 341 336 332 333 337 337 333 335 338 348 359 357 1 2 3
271 266 253 247 242 244 251 263 268 268 271 270 264 259 261 266 281 287 289 298 307 321 328 334 337 342 344 341 336 333 332 334 340 329 335 338 345 356 2 4 8 5
278 279 283 285 275 279 274 268 272 276 274 279 276 268 268 274 280 289 290 297 303 314 319 324 331 335 340 341 337 334 332 333 337 334 329 336 341 353 1 6 8 12
291 294 294 299 288 284 278 276 282 280 282 280 283 280 276 273 280 291 291 297 297 304 313 320 325 329 334 338 336 334 332 331 333 332 329 326 338 352 359 6 10 11
301 301 300 300 297 293 290 296 301 296 299 292 288 284 278 276 278 286 288 290 291 301 305 315 320 323 325 329 333 332 329 327 329 330 328 325 329 344 356 3 9 13
298 300 302 300 301 301 302 308 309 309 309 308 302 291 287 287 283 285 288 291 292 298 307 313 317 319 319 321 325 328 328 326 324 331 329 325 326 335 347 357 5 7
303 303 307 301 304 304 305 304 302 304 305 301 295 295 292 291 289 286 285 286 290 292 303 303 308 312 311 312 317 321 322 324 322 327 331 326 319 330 342 351 357 0
303 299 301 299 306 305 307 304 302 301 300 297 300 296 293 293 293 288 284 286 287 289 291 298 301 305 309 307 311 314 318 316 321 323 326 326 318 323 330 335 343 353
297 299 300 308 314 309 316 313 308 305 302 305 305 297 294 292 289 289 285 285 283 282 287 290 295 300 301 304 306 308 310 314 318 321 322 325 324 320 322 324 335 342
300 300 309 313 318 314 322 320 314 313 314 318 316 309 304 296 291 288 284 284 286 285 287 289 292 295 298 300 303 304 303 308 313 317 318 321 321 317 315 316 326 330
309 307 311 317 321 316 325 325 328 326 323 327 323 323 319 304 295 289 285 285 286 289 288 289 291 293 296 298 298 298 301 302 307 312 314 315 317 315 311 309 315 323
310 312 318 321 321 323 326 329 333 335 332 325 327 328 324 319 306 294 288 289 286 287 288 289 290 291 294 297 299 299 299 300 302 308 311 312 314 315 312 307 306 314
311 313 311 314 312 314 315 324 334 337 338 332 325 330 329 327 319 307 294 292 288 287 289 289 291 292 292 296 297 298 300 300 301 305 307 306 310 313 312 308 306 306
307 304 304 303 299 298 309 323 328 328 328 326 324 335 337 334 330 318 307 300 295 291 290 289 291 292 295 298 299 299 299 300 300 301 304 305 307 308 308 306 305 303
290 288 288 289 291 293 307 316 316 312 314 322 329 336 333 339 337 332 323 317 311 305 303 301 302 302 301 304 304 305 301 301 301 299 300 301 302 303 302 302 301 300
277 276 280 282 281 287 296 301 300 301 314 328 337 343 335 333 336 341 342 334 328 324 318 314 315 313 316 322 312 302 303 296 294 294 295 294 295 296 298 301 303 299
268 270 272 277 277 276 280 288 290 286 293 304 318 329 334 324 336 355 1 350 345 337 334 325 320 315 320 319 320 317 308 304 299 296 294 293 294 294 294 298 300 302
267 267 269 272 269 271 276 279 277 279 282 292 306 323 309 320 335 348 354 1 352 353 350 342 336 329 322 324 322 321 315 307 305 302 300 300 299 300 296 296 300 303
272 268 269 270 271 271 270 274 279 284 289 292 302 296 292 306 316 328 338 347 356 355 357 351 350 333 331 334 333 330 327 320 308 307 306 306 307 309 306 302 301 303
282 276 276 275 271 272 276 281 288 295 295 285 277 278 286 298 311 320 314 322 327 330 325 335 349 324 332 335 337 336 333 325 315 313 312 313 315 314 308 307 307 304
288 283 280 277 275 275 280 287 292 291 292 286 283 285 287 289 293 300 303 309 315 315 308 317 322 313 322 327 329 328 327 321 315 314 313 315 318 319 315 313 311 307
292 285 280 278 278 278 283 291 294 295 294 288 285 285 283 283 286 294 303 305 301 304 306 311 305 302 311 317 321 319 317 305 310 312 310 311 315 318 317 314 314 313
298 291 286 285 285 288 295 299 296 293 288 285 291 293 293 295 294 295 290 295 300 299 303 298 294 291 301 308 311 312 303 298 304 306 309 312 311 315 315 314 313 312
306 301 295 291 291 301 306 300 292 284 286 287 292 294 295 294 289 282 283 284 289 293 295 293 292 292 304 307 312 310 307 301 302 307 311 313 314 313 310 312 313 311
306 307 303 299 300 302 296 294 292 289 287 289 292 292 291 285 282 280 280 282 286 290 291 297 296 295 305 312 317 315 312 302 305 308 312 316 315 312 310 307 307 302
294 298 301 303 303 301 296 292 285 285 292 295 294 291 291 293 292 288 288 286 287 289 285 294 296 288 296 311 313 314 319 306 303 306 311 314 311 307 305 306 306 301